Location: Nitra
(0.0000°N, 18.0833°E)
Time: 19:22:09
(UTC+02:00)

A-11 Canister half - Pass Details

Date: 06 April 2023
Orbit: 1526 x 1682 km, 47.3° (Epoch: 08 June)

Event Time Altitude Azimuth Distance (km) Brightness Sun altitude
Rises 22:48:56 0° 315° (NW) 4,769 12.0 -59.1°
Reaches altitude 10° 22:52:04 10° 313° (NW) 3,765 11.3 -59.8°
Enters shadow 22:52:57 13° 312° (NW) 3,486 11.1 -60.1°
Maximum altitude 23:01:30 70° 231° (SW) 1,625 - -62.1°
Drops below altitude 10° 23:10:46 10° 148° (SSE) 3,694 - -64.4°
Sets 23:13:49 0° 146° (SE) 4,674 - -65.1°
